Flag for U.S.A. Weather past 2 weeks in Philadelphia, Pennsylvania, U.S.A.

Now
79 °F

Scattered clouds.


Feels Like: 79 °F
Forecast: 61 / 80 °F
Wind: 9 mph from Southwest

Location: Philadelphia International Airport

Current Time: Jul 30, 2014 at 3:42:37 PM

Latest Report: Jul 30, 2014 at 2:54 PM


Visibility: 10 mi

Pressure: 30.02 "Hg

Humidity: 38%

Dew point: 51 °F

Location of PhiladelphiaLocation

Historic Weather in Philadelphia — Graph

°F

Philadelphia temperature yesterday

Maximum temperature yesterday: 75 °F (at 3:54 PM)
Minimum temperature yesterday: 64 °F (at 5:54 AM)
Average temperature yesterday: 71 °F

Past Weeks' High & Low Weather Summary

 TemperatureHumidityPressure
High92 °F (Jul 23, 4:54 PM)93% (Jul 28, 12:54 AM)30.23 "Hg (Jul 28, 12:54 AM)
Low62 °F (Jul 30, 5:54 AM)22% (Jul 18, 5:54 PM)29.56 "Hg (Jul 28, 4:54 AM)
Average75 °F59%29.97 "Hg
* Reported Jul 15 1:54 PM — Jul 30 1:54 PM, Philadelphia, Weather by CustomWeather, © 2014

Note: Actual official high and low records may vary slightly from our data, if they occured in-between our weather recording intervals... More about our weather records

Advertising

Philadelphia weather history for previous 24 hours

 ConditionsComfort  
Time TempWeatherWind HumidityBarometerVisibility
1:54 PM
Jul 30
78 °FPassing clouds.9 mph39%30.03 "Hg10 mi
12:54 PM76 °FPassing clouds.9 mph40%30.04 "Hg10 mi
11:54 AM75 °FPassing clouds.8 mph42%30.05 "Hg10 mi
10:54 AM74 °FPassing clouds.3 mph41%30.06 "Hg10 mi
9:54 AM73 °FSunny.No wind48%30.06 "Hg10 mi
8:54 AM69 °FSunny.5 mph55%30.05 "Hg10 mi
7:54 AM65 °FPassing clouds.3 mph66%30.05 "Hg10 mi
6:54 AM63 °FPartly cloudy.No wind68%30.03 "Hg10 mi
5:54 AM62 °FPassing clouds.5 mph67%30.02 "Hg10 mi
4:54 AM63 °FPassing clouds.7 mph68%30.00 "Hg10 mi
3:54 AM64 °FPassing clouds.7 mph68%29.99 "Hg10 mi
2:54 AM65 °FPassing clouds.6 mph66%29.98 "Hg10 mi
1:54 AM66 °FPassing clouds.5 mph63%29.99 "Hg10 mi
12:54 AM68 °FOvercast.6 mph59%29.99 "Hg10 mi
11:54 PM
Jul 29
70 °FMostly cloudy.7 mph55%29.99 "Hg10 mi
10:54 PM71 °FMostly cloudy.8 mph53%29.99 "Hg10 mi
9:54 PM72 °FOvercast.8 mph53%29.98 "Hg10 mi
8:54 PM73 °FOvercast.8 mph50%29.96 "Hg10 mi
7:54 PM74 °FOvercast.9 mph46%29.96 "Hg10 mi
6:54 PM74 °FMore clouds than sun.9 mph48%29.95 "Hg10 mi
5:54 PM74 °FMore clouds than sun.5 mph48%29.93 "Hg10 mi
4:54 PM75 °FMostly cloudy.8 mph47%29.92 "Hg10 mi
3:54 PM75 °FMostly cloudy.3 mph47%29.91 "Hg10 mi
Weather by CustomWeather, © 2014

See weather overviewHow to use our weather pages